| time (UTC) | temp C | wind direction | speed KPH | gust KPH | rain 1hr cm | rain 24hr cm | rain mn cm | humidity % | barometer mb |
| 20260901024048 | 28 | 64 | 0.0 | 0.0 | 0.00 | 0.00 | 0.00 | 57 | 1011.2 |
| 20260901023538 | 28 | 64 | 0.0 | 0.0 | 0.00 | 0.00 | 0.00 | 56 | 1011.1 |
| 20260901023026 | 28 | 64 | 0.0 | 0.0 | 0.00 | 0.00 | 0.00 | 56 | 1011.0 |
| 20260901022519 | 28 | 69 | 0.0 | 0.0 | 0.00 | 0.00 | 0.00 | 56 | 1010.9 |
| 20260901022008 | 28 | 69 | 0.0 | 3.2 | 0.00 | 0.00 | 0.00 | 56 | 1010.8 |
| 20260901021557 | 28 | 108 | 0.0 | 3.2 | 0.00 | 0.00 | 0.00 | 56 | 1010.7 |
| 20260901021046 | 28 | 128 | 0.0 | 3.2 | 0.00 | 0.00 | 0.00 | 55 | 1010.7 |
| 20260901020535 | 28 | 128 | 0.0 | 0.0 | 0.00 | 0.00 | 0.00 | 54 | 1010.6 |
| 20260901020012 | 29 | 128 | 0.0 | 0.0 | 0.00 | 0.00 | 0.00 | 55 | 1010.5 |
| 20260901015502 | 29 | 128 | 0.0 | 0.0 | 0.00 | 0.00 | 0.00 | 54 | 1010.4 |
| 20260901015053 | 30 | 128 | 0.0 | 0.0 | 0.00 | 0.00 | 0.00 | 53 | 1010.3 |
| 20260901014543 | 30 | 128 | 0.0 | 0.0 | 0.00 | 0.00 | 0.00 | 51 | 1010.3 |
| 20260901014033 | 30 | 128 | 0.0 | 0.0 | 0.00 | 0.00 | 0.00 | 50 | 1010.3 |
| 20260901013522 | 31 | 128 | 0.0 | 0.0 | 0.00 | 0.00 | 0.00 | 50 | 1010.3 |
| 20260901013028 | 31 | 128 | 0.0 | 0.0 | 0.00 | 0.00 | 0.00 | 50 | 1010.3 |
| 20260901012603 | 31 | 128 | 0.0 | 0.0 | 0.00 | 0.00 | 0.00 | 48 | 1010.2 |
| 20260901012051 | 31 | 128 | 0.0 | 0.0 | 0.00 | 0.00 | 0.00 | 48 | 1010.1 |
| 20260901011541 | 32 | 128 | 0.0 | 0.0 | 0.00 | 0.00 | 0.00 | 45 | 1010.1 |
| 20260901011030 | 32 | 128 | 0.0 | 0.0 | 0.00 | 0.00 | 0.00 | 45 | 1010.1 |
| 20260901010520 | 32 | 128 | 0.0 | 1.6 | 0.00 | 0.00 | 0.00 | 44 | 1010.0 |
| 20260901010058 | 32 | 128 | 0.0 | 1.6 | 0.00 | 0.00 | 0.00 | 44 | 1010.0 |
| 20260901005547 | 32 | 128 | 0.0 | 4.8 | 0.00 | 0.00 | 0.00 | 43 | 1010.0 |
| 20260901005035 | 33 | 129 | 0.0 | 6.4 | 0.00 | 0.00 | 0.00 | 43 | 1010.0 |
| 20260901004524 | 33 | 103 | 3.2 | 9.7 | 0.00 | 0.00 | 0.00 | 43 | 1010.0 |
| 20260901004014 | 33 | 84 | 3.2 | 9.7 | 0.00 | 0.00 | 0.00 | 43 | 1010.0 |
| 20260901003504 | 33 | 121 | 0.0 | 11.3 | 0.00 | 0.00 | 0.00 | 43 | 1010.0 |
| 20260901003055 | 33 | 113 | 3.2 | 12.9 | 0.00 | 0.00 | 0.00 | 43 | 1009.9 |
| 20260901002545 | 33 | 112 | 6.4 | 14.5 | 0.00 | 0.00 | 0.00 | 43 | 1009.9 |
| 20260901002035 | 33 | 86 | 3.2 | 14.5 | 0.00 | 0.00 | 0.00 | 43 | 1009.9 |
| 20260901001523 | 33 | 119 | 4.8 | 9.7 | 0.00 | 0.00 | 0.00 | 43 | 1009.8 |
| 20260901001012 | 34 | 76 | 4.8 | 11.3 | 0.00 | 0.00 | 0.00 | 42 | 1009.8 |
| 20260901000502 | 34 | 105 | 3.2 | 14.5 | 0.00 | 0.00 | 0.00 | 41 | 1009.7 |
| 20260901000041 | 34 | 113 | 6.4 | 14.5 | 0.00 | 0.00 | 0.00 | 41 | 1009.6 |
| 20260831235530 | 34 | 117 | 8.0 | 14.5 | 0.00 | 0.00 | 0.00 | 41 | 1009.6 |
| 20260831235020 | 35 | 90 | 6.4 | 14.5 | 0.00 | 0.00 | 0.00 | 42 | 1009.6 |
| 20260831234509 | 35 | 113 | 6.4 | 14.5 | 0.00 | 0.00 | 0.00 | 42 | 1009.6 |
| 20260831234101 | 35 | 123 | 11.3 | 17.7 | 0.00 | 0.00 | 0.00 | 41 | 1009.6 |
| 20260831233550 | 35 | 134 | 4.8 | 17.7 | 0.00 | 0.00 | 0.00 | 42 | 1009.6 |
| 20260831233039 | 35 | 148 | 9.7 | 17.7 | 0.00 | 0.00 | 0.00 | 41 | 1009.6 |
| 20260831232528 | 35 | 128 | 9.7 | 17.7 | 0.00 | 0.00 | 0.00 | 41 | 1009.6 |
| 20260831232018 | 35 | 91 | 6.4 | 16.1 | 0.00 | 0.00 | 0.00 | 40 | 1009.6 |
| 20260831231507 | 35 | 140 | 4.8 | 8.0 | 0.00 | 0.00 | 0.00 | 42 | 1009.6 |
| 20260831231058 | 35 | 121 | 3.2 | 16.1 | 0.00 | 0.00 | 0.00 | 41 | 1009.7 |
| 20260831230548 | 35 | 130 | 8.0 | 16.1 | 0.00 | 0.00 | 0.00 | 41 | 1009.7 |
| 20260831230024 | 35 | 126 | 6.4 | 17.7 | 0.00 | 0.00 | 0.00 | 42 | 1009.8 |
| 20260831225517 | 35 | 110 | 8.0 | 17.7 | 0.00 | 0.00 | 0.00 | 41 | 1009.8 |
| 20260831225005 | 35 | 92 | 1.6 | 17.7 | 0.00 | 0.00 | 0.00 | 43 | 1009.8 |
| 20260831224553 | 35 | 171 | 4.8 | 16.1 | 0.00 | 0.00 | 0.00 | 43 | 1009.9 |
| 20260831224046 | 35 | 136 | 9.7 | 16.1 | 0.00 | 0.00 | 0.00 | 43 | 1009.9 |
| 20260831223532 | 35 | 118 | 6.4 | 16.1 | 0.00 | 0.00 | 0.00 | 44 | 1009.9 |
| 20260831223022 | 35 | 110 | 8.0 | 16.1 | 0.00 | 0.00 | 0.00 | 43 | 1010.0 |
| 20260831222510 | 35 | 114 | 1.6 | 12.9 | 0.00 | 0.00 | 0.00 | 42 | 1010.0 |
| 20260831222103 | 35 | 99 | 4.8 | 16.1 | 0.00 | 0.00 | 0.00 | 43 | 1010.0 |
| 20260831221614 | 34 | 171 | 4.8 | 16.1 | 0.00 | 0.00 | 0.00 | 43 | 1010.1 |
| 20260831221041 | 34 | 117 | 3.2 | 14.5 | 0.00 | 0.00 | 0.00 | 44 | 1010.1 |
| 20260831220531 | 34 | 115 | 4.8 | 17.7 | 0.00 | 0.00 | 0.00 | 43 | 1010.2 |
| 20260831220008 | 34 | 115 | 4.8 | 19.3 | 0.00 | 0.00 | 0.00 | 43 | 1010.2 |
| 20260831215600 | 34 | 116 | 3.2 | 19.3 | 0.00 | 0.00 | 0.00 | 43 | 1010.2 |
| 20260831215049 | 35 | 91 | 4.8 | 11.3 | 0.00 | 0.00 | 0.00 | 42 | 1010.3 |
| 20260831214540 | 35 | 72 | 4.8 | 14.5 | 0.00 | 0.00 | 0.00 | 43 | 1010.4 |
| 20260831214027 | 35 | 86 | 9.7 | 14.5 | 0.00 | 0.00 | 0.00 | 43 | 1010.4 |
| 20260831213516 | 35 | 74 | 4.8 | 14.5 | 0.00 | 0.00 | 0.00 | 42 | 1010.4 |
| 20260831213006 | 36 | 50 | 6.4 | 24.1 | 0.00 | 0.00 | 0.00 | 40 | 1010.4 |
| 20260831212558 | 36 | 83 | 9.7 | 24.1 | 0.00 | 0.00 | 0.00 | 40 | 1010.5 |
| 20260831212049 | 36 | 108 | 11.3 | 20.9 | 0.00 | 0.00 | 0.00 | 40 | 1010.4 |
| 20260831211536 | 36 | 126 | 1.6 | 17.7 | 0.00 | 0.00 | 0.00 | 40 | 1010.6 |
| 20260831211024 | 36 | 175 | 11.3 | 19.3 | 0.00 | 0.00 | 0.00 | 39 | 1010.8 |
| 20260831210514 | 36 | 118 | 11.3 | 19.3 | 0.00 | 0.00 | 0.00 | 39 | 1010.9 |
| 20260831210051 | 36 | 211 | 9.7 | 19.3 | 0.00 | 0.00 | 0.00 | 38 | 1010.9 |
| 20260831205544 | 36 | 130 | 6.4 | 19.3 | 0.00 | 0.00 | 0.00 | 39 | 1010.9 |
| 20260831205030 | 36 | 160 | 3.2 | 19.3 | 0.00 | 0.00 | 0.00 | 40 | 1011.0 |
| 20260831204519 | 36 | 134 | 11.3 | 19.3 | 0.00 | 0.00 | 0.00 | 40 | 1011.1 |
| 20260831204011 | 36 | 202 | 9.7 | 16.1 | 0.00 | 0.00 | 0.00 | 39 | 1011.2 |
| 20260831203600 | 36 | 121 | 9.7 | 20.9 | 0.00 | 0.00 | 0.00 | 40 | 1011.2 |
| 20260831203106 | 36 | 134 | 9.7 | 20.9 | 0.00 | 0.00 | 0.00 | 40 | 1011.3 |
| 20260831202538 | 36 | 152 | 8.0 | 12.9 | 0.00 | 0.00 | 0.00 | 42 | 1011.4 |
| 20260831202030 | 36 | 175 | 6.4 | 16.1 | 0.00 | 0.00 | 0.00 | 42 | 1011.5 |
| 20260831201518 | 35 | 155 | 9.7 | 27.4 | 0.00 | 0.00 | 0.00 | 42 | 1011.6 |
| 20260831201007 | 35 | 187 | 9.7 | 27.4 | 0.00 | 0.00 | 0.00 | 43 | 1011.8 |
| 20260831200559 | 35 | 190 | 11.3 | 19.3 | 0.00 | 0.00 | 0.00 | 44 | 1011.8 |
| 20260831200112 | 35 | 119 | 8.0 | 20.9 | 0.00 | 0.00 | 0.00 | 44 | 1011.9 |
| 20260831195528 | 35 | 89 | 8.0 | 22.5 | 0.00 | 0.00 | 0.00 | 45 | 1012.0 |
| 20260831195013 | 35 | 107 | 11.3 | 22.5 | 0.00 | 0.00 | 0.00 | 45 | 1012.1 |
| 20260831194503 | 35 | 168 | 9.7 | 19.3 | 0.00 | 0.00 | 0.00 | 44 | 1012.0 |
| 20260831194055 | 35 | 167 | 8.0 | 22.5 | 0.00 | 0.00 | 0.00 | 45 | 1012.1 |
| 20260831193544 | 35 | 98 | 6.4 | 22.5 | 0.00 | 0.00 | 0.00 | 44 | 1012.2 |
| 20260831193034 | 35 | 132 | 14.5 | 22.5 | 0.00 | 0.00 | 0.00 | 44 | 1012.2 |
| 20260831192523 | 35 | 166 | 1.6 | 14.5 | 0.00 | 0.00 | 0.00 | 46 | 1012.3 |
| 20260831192011 | 35 | 114 | 4.8 | 24.1 | 0.00 | 0.00 | 0.00 | 47 | 1012.4 |
| 20260831191616 | 35 | 151 | 14.5 | 22.5 | 0.00 | 0.00 | 0.00 | 45 | 1012.5 |
| 20260831191052 | 35 | 130 | 9.7 | 16.1 | 0.00 | 0.00 | 0.00 | 46 | 1012.5 |
| 20260831190541 | 35 | 179 | 9.7 | 24.1 | 0.00 | 0.00 | 0.00 | 48 | 1012.6 |
| 20260831190030 | 35 | 191 | 8.0 | 17.7 | 0.00 | 0.00 | 0.00 | 47 | 1012.6 |
| 20260831185508 | 35 | 132 | 8.0 | 19.3 | 0.00 | 0.00 | 0.00 | 47 | 1012.7 |
| 20260831185059 | 34 | 120 | 9.7 | 19.3 | 0.00 | 0.00 | 0.00 | 47 | 1012.7 |
| 20260831184548 | 34 | 126 | 8.0 | 22.5 | 0.00 | 0.00 | 0.00 | 48 | 1012.8 |
| 20260831184037 | 34 | 144 | 12.9 | 22.5 | 0.00 | 0.00 | 0.00 | 49 | 1012.8 |
| 20260831183524 | 33 | 112 | 3.2 | 20.9 | 0.00 | 0.00 | 0.00 | 49 | 1012.9 |
| 20260831183013 | 34 | 114 | 9.7 | 19.3 | 0.00 | 0.00 | 0.00 | 49 | 1012.9 |
| 20260831182502 | 34 | 155 | 8.0 | 16.1 | 0.00 | 0.00 | 0.00 | 50 | 1012.9 |
| 20260831182054 | 34 | 155 | 8.0 | 17.7 | 0.00 | 0.00 | 0.00 | 51 | 1012.9 |
| 20260831181550 | 33 | 128 | 6.4 | 27.4 | 0.00 | 0.00 | 0.00 | 51 | 1013.1 |
| 20260831181033 | 33 | 148 | 14.5 | 27.4 | 0.00 | 0.00 | 0.00 | 50 | 1013.1 |
| 20260831180521 | 33 | 66 | 9.7 | 19.3 | 0.00 | 0.00 | 0.00 | 52 | 1013.1 |
| 20260831180111 | 33 | 140 | 4.8 | 19.3 | 0.00 | 0.00 | 0.00 | 52 | 1013.1 |
| 20260831175550 | 33 | 151 | 8.0 | 19.3 | 0.00 | 0.00 | 0.00 | 53 | 1013.2 |
| 20260831175039 | 32 | 164 | 11.3 | 19.3 | 0.00 | 0.00 | 0.00 | 54 | 1013.2 |
| 20260831174529 | 32 | 123 | 6.4 | 17.7 | 0.00 | 0.00 | 0.00 | 54 | 1013.3 |
| 20260831174019 | 33 | 65 | 3.2 | 17.7 | 0.00 | 0.00 | 0.00 | 55 | 1013.3 |
| 20260831173508 | 32 | 184 | 11.3 | 19.3 | 0.00 | 0.00 | 0.00 | 57 | 1013.4 |
| 20260831173104 | 32 | 142 | 4.8 | 16.1 | 0.00 | 0.00 | 0.00 | 56 | 1013.5 |
| 20260831172545 | 33 | 212 | 3.2 | 16.1 | 0.00 | 0.00 | 0.00 | 55 | 1013.4 |
| 20260831172036 | 33 | 188 | 9.7 | 19.3 | 0.00 | 0.00 | 0.00 | 55 | 1013.5 |
| 20260831171524 | 33 | 161 | 11.3 | 19.3 | 0.00 | 0.00 | 0.00 | 54 | 1013.6 |
| 20260831171013 | 33 | 159 | 4.8 | 19.3 | 0.00 | 0.00 | 0.00 | 54 | 1013.6 |
| 20260831170502 | 32 | 90 | 11.3 | 22.5 | 0.00 | 0.00 | 0.00 | 55 | 1013.7 |
| 20260831170043 | 32 | 98 | 12.9 | 22.5 | 0.00 | 0.00 | 0.00 | 55 | 1013.6 |
| 20260831165530 | 32 | 200 | 6.4 | 16.1 | 0.00 | 0.00 | 0.00 | 59 | 1013.7 |
| 20260831165020 | 32 | 148 | 6.4 | 14.5 | 0.00 | 0.00 | 0.00 | 58 | 1013.7 |
| 20260831164516 | 32 | 229 | 4.8 | 14.5 | 0.00 | 0.00 | 0.00 | 58 | 1013.7 |
| 20260831164100 | 32 | 176 | 8.0 | 17.7 | 0.00 | 0.00 | 0.00 | 57 | 1013.7 |
| 20260831163550 | 32 | 150 | 11.3 | 17.7 | 0.00 | 0.00 | 0.00 | 55 | 1013.7 |
| 20260831163041 | 32 | 129 | 9.7 | 24.1 | 0.00 | 0.00 | 0.00 | 55 | 1013.7 |
| 20260831162529 | 32 | 158 | 9.7 | 24.1 | 0.00 | 0.00 | 0.00 | 58 | 1013.7 |
| 20260831162018 | 32 | 155 | 8.0 | 17.7 | 0.00 | 0.00 | 0.00 | 61 | 1013.7 |
| 20260831161507 | 31 | 153 | 8.0 | 19.3 | 0.00 | 0.00 | 0.00 | 62 | 1013.6 |
| 20260831161059 | 31 | 103 | 12.9 | 19.3 | 0.00 | 0.00 | 0.00 | 63 | 1013.6 |
| 20260831160548 | 31 | 109 | 9.7 | 19.3 | 0.00 | 0.00 | 0.00 | 64 | 1013.6 |
| 20260831160026 | 31 | 183 | 6.4 | 14.5 | 0.00 | 0.00 | 0.00 | 64 | 1013.6 |
| 20260831155515 | 30 | 207 | 4.8 | 16.1 | 0.00 | 0.00 | 0.00 | 63 | 1013.6 |
| 20260831155004 | 30 | 157 | 8.0 | 16.1 | 0.00 | 0.00 | 0.00 | 67 | 1013.6 |
| 20260831154558 | 30 | 150 | 8.0 | 14.5 | 0.00 | 0.00 | 0.00 | 68 | 1013.7 |
| 20260831154048 | 30 | 181 | 4.8 | 16.1 | 0.00 | 0.00 | 0.00 | 70 | 1013.5 |
| 20260831153533 | 29 | 144 | 8.0 | 17.7 | 0.00 | 0.00 | 0.00 | 71 | 1013.5 |
| 20260831153023 | 28 | 146 | 8.0 | 17.7 | 0.00 | 0.00 | 0.00 | 74 | 1013.5 |
| 20260831152516 | 28 | 228 | 9.7 | 17.7 | 0.00 | 0.00 | 0.00 | 75 | 1013.5 |
| 20260831152002 | 28 | 187 | 3.2 | 14.5 | 0.00 | 0.00 | 0.00 | 77 | 1013.4 |
| 20260831151553 | 27 | 173 | 8.0 | 14.5 | 0.00 | 0.00 | 0.00 | 78 | 1013.5 |
| 20260831151042 | 27 | 175 | 8.0 | 14.5 | 0.00 | 0.00 | 0.00 | 79 | 1013.5 |
| 20260831150532 | 27 | 163 | 8.0 | 14.5 | 0.00 | 0.00 | 0.00 | 79 | 1013.5 |
| 20260831150008 | 27 | 167 | 6.4 | 14.5 | 0.00 | 0.00 | 0.00 | 79 | 1013.5 |
| 20260831145559 | 27 | 210 | 6.4 | 14.5 | 0.00 | 0.00 | 0.00 | 79 | 1013.3 |
| 20260831145050 | 27 | 203 | 4.8 | 14.5 | 0.00 | 0.00 | 0.00 | 79 | 1013.4 |
| 20260831144535 | 27 | 203 | 8.0 | 17.7 | 0.00 | 0.00 | 0.00 | 79 | 1013.4 |
| 20260831144025 | 27 | 200 | 11.3 | 24.1 | 0.00 | 0.00 | 0.00 | 79 | 1013.3 |
| 20260831143515 | 27 | 200 | 11.3 | 24.1 | 0.00 | 0.00 | 0.00 | 80 | 1013.2 |
| 20260831143006 | 27 | 173 | 4.8 | 14.5 | 0.00 | 0.00 | 0.00 | 83 | 1013.2 |
| 20260831142555 | 27 | 199 | 8.0 | 16.1 | 0.00 | 0.00 | 0.00 | 84 | 1013.2 |
| 20260831142047 | 26 | 214 | 8.0 | 14.5 | 0.00 | 0.00 | 0.00 | 85 | 1013.3 |
| 20260831141533 | 26 | 188 | 8.0 | 14.5 | 0.00 | 0.00 | 0.00 | 87 | 1013.2 |
| 20260831141021 | 26 | 151 | 8.0 | 16.1 | 0.00 | 0.00 | 0.00 | 89 | 1013.2 |
| 20260831140514 | 26 | 179 | 6.4 | 17.7 | 0.00 | 0.00 | 0.00 | 91 | 1013.1 |
| 20260831140050 | 25 | 180 | 8.0 | 17.7 | 0.00 | 0.00 | 0.00 | 92 | 1013.2 |
| 20260831135539 | 25 | 161 | 9.7 | 14.5 | 0.00 | 0.00 | 0.00 | 93 | 1013.2 |
| 20260831135029 | 25 | 140 | 8.0 | 16.1 | 0.00 | 0.00 | 0.00 | 94 | 1013.1 |
| 20260831134518 | 25 | 137 | 8.0 | 17.7 | 0.00 | 0.00 | 0.00 | 94 | 1013.0 |
| 20260831134007 | 25 | 184 | 6.4 | 17.7 | 0.00 | 0.00 | 0.00 | 95 | 1012.9 |
| 20260831133558 | 24 | 207 | 6.4 | 12.9 | 0.00 | 0.00 | 0.00 | 95 | 1012.9 |
| 20260831133047 | 24 | 184 | 4.8 | 9.7 | 0.00 | 0.00 | 0.00 | 95 | 1013.0 |
| 20260831132537 | 24 | 136 | 6.4 | 11.3 | 0.00 | 0.00 | 0.00 | 95 | 1013.0 |
| 20260831132026 | 23 | 146 | 4.8 | 11.3 | 0.00 | 0.00 | 0.00 | 95 | 1013.0 |
| 20260831131516 | 23 | 164 | 0.0 | 4.8 | 0.00 | 0.00 | 0.00 | 95 | 1013.0 |
| 20260831131005 | 23 | 161 | 0.0 | 4.8 | 0.00 | 0.00 | 0.00 | 95 | 1012.9 |
| 20260831130556 | 23 | 191 | 0.0 | 3.2 | 0.00 | 0.00 | 0.00 | 95 | 1012.9 |
| 20260831130032 | 23 | 215 | 0.0 | 1.6 | 0.00 | 0.00 | 0.00 | 95 | 1012.9 |
| 20260831125522 | 22 | 173 | 0.0 | 1.6 | 0.00 | 0.00 | 0.00 | 94 | 1012.9 |
| 20260831125011 | 22 | 175 | 0.0 | 1.6 | 0.00 | 0.00 | 0.00 | 94 | 1012.9 |
| 20260831124603 | 22 | 205 | 0.0 | 1.6 | 0.00 | 0.00 | 0.00 | 94 | 1012.9 |
| 20260831124053 | 22 | 184 | 0.0 | 0.0 | 0.00 | 0.00 | 0.00 | 94 | 1012.8 |
| 20260831123542 | 22 | 184 | 0.0 | 0.0 | 0.00 | 0.00 | 0.00 | 94 | 1012.7 |
| 20260831123031 | 22 | 184 | 0.0 | 0.0 | 0.00 | 0.00 | 0.00 | 93 | 1012.6 |
| 20260831122521 | 22 | 184 | 0.0 | 0.0 | 0.00 | 0.00 | 0.00 | 93 | 1012.7 |
| 20260831122010 | 22 | 184 | 0.0 | 0.0 | 0.00 | 0.00 | 0.00 | 93 | 1012.6 |
| 20260831121601 | 22 | 184 | 0.0 | 0.0 | 0.00 | 0.00 | 0.00 | 92 | 1012.5 |
| 20260831121050 | 22 | 184 | 0.0 | 0.0 | 0.00 | 0.00 | 0.00 | 92 | 1012.4 |
| 20260831120539 | 22 | 184 | 0.0 | 0.0 | 0.00 | 0.00 | 0.00 | 92 | 1012.3 |
| 20260831120018 | 22 | 184 | 0.0 | 0.0 | 0.00 | 0.00 | 0.00 | 92 | 1012.4 |
| 20260831115505 | 22 | 184 | 0.0 | 0.0 | 0.00 | 0.00 | 0.00 | 92 | 1012.4 |
| 20260831115057 | 22 | 184 | 0.0 | 0.0 | 0.00 | 0.00 | 0.00 | 92 | 1012.4 |
| 20260831114547 | 22 | 184 | 0.0 | 0.0 | 0.00 | 0.00 | 0.00 | 92 | 1012.4 |
| 20260831114036 | 23 | 184 | 0.0 | 0.0 | 0.00 | 0.00 | 0.00 | 92 | 1012.3 |
| 20260831113525 | 23 | 184 | 0.0 | 0.0 | 0.00 | 0.00 | 0.00 | 92 | 1012.3 |
| 20260831113014 | 23 | 184 | 0.0 | 0.0 | 0.00 | 0.00 | 0.00 | 92 | 1012.3 |
| 20260831112504 | 23 | 184 | 0.0 | 0.0 | 0.00 | 0.00 | 0.00 | 92 | 1012.2 |
| 20260831112056 | 23 | 184 | 0.0 | 0.0 | 0.00 | 0.00 | 0.00 | 91 | 1012.2 |
| 20260831111544 | 23 | 184 | 0.0 | 0.0 | 0.00 | 0.00 | 0.00 | 91 | 1012.4 |
| 20260831111034 | 23 | 184 | 0.0 | 0.0 | 0.00 | 0.00 | 0.00 | 91 | 1012.3 |
| 20260831110526 | 23 | 184 | 0.0 | 0.0 | 0.00 | 0.00 | 0.00 | 91 | 1012.3 |
| 20260831110108 | 23 | 184 | 0.0 | 0.0 | 0.00 | 0.00 | 0.00 | 91 | 1012.3 |
| 20260831105550 | 23 | 184 | 0.0 | 0.0 | 0.00 | 0.00 | 0.00 | 91 | 1012.3 |
| 20260831105040 | 23 | 184 | 0.0 | 0.0 | 0.00 | 0.00 | 0.00 | 91 | 1012.3 |
| 20260831104536 | 23 | 184 | 0.0 | 0.0 | 0.00 | 0.00 | 0.00 | 91 | 1012.3 |
| 20260831104018 | 23 | 184 | 0.0 | 0.0 | 0.00 | 0.00 | 0.00 | 91 | 1012.4 |
| 20260831103509 | 23 | 184 | 0.0 | 0.0 | 0.00 | 0.00 | 0.00 | 91 | 1012.4 |
| 20260831103058 | 23 | 184 | 0.0 | 0.0 | 0.00 | 0.00 | 0.00 | 91 | 1012.3 |
| 20260831102548 | 23 | 184 | 0.0 | 0.0 | 0.00 | 0.00 | 0.00 | 91 | 1012.4 |
| 20260831102037 | 23 | 184 | 0.0 | 1.6 | 0.00 | 0.00 | 0.00 | 91 | 1012.4 |
| 20260831101527 | 23 | 184 | 0.0 | 1.6 | 0.00 | 0.00 | 0.00 | 91 | 1012.4 |
| 20260831101017 | 23 | 184 | 0.0 | 4.8 | 0.00 | 0.00 | 0.00 | 91 | 1012.5 |
| 20260831100508 | 23 | 184 | 0.0 | 4.8 | 0.00 | 0.00 | 0.00 | 90 | 1012.5 |
| 20260831100044 | 23 | 183 | 0.0 | 3.2 | 0.00 | 0.00 | 0.00 | 90 | 1012.5 |
| 20260831095531 | 24 | 173 | 0.0 | 8.0 | 0.00 | 0.00 | 0.00 | 90 | 1012.4 |
| 20260831095021 | 24 | 167 | 1.6 | 8.0 | 0.00 | 0.00 | 0.00 | 90 | 1012.5 |
| 20260831094510 | 24 | 171 | 1.6 | 11.3 | 0.00 | 0.00 | 0.00 | 90 | 1012.5 |
| 20260831094102 | 24 | 146 | 1.6 | 11.3 | 0.00 | 0.00 | 0.00 | 90 | 1012.4 |
| 20260831093552 | 24 | 172 | 1.6 | 8.0 | 0.00 | 0.00 | 0.00 | 90 | 1012.4 |
| 20260831093040 | 24 | 149 | 4.8 | 11.3 | 0.00 | 0.00 | 0.00 | 90 | 1012.3 |
| 20260831092534 | 24 | 173 | 0.0 | 6.4 | 0.00 | 0.00 | 0.00 | 90 | 1012.3 |
| 20260831092019 | 24 | 162 | 3.2 | 14.5 | 0.00 | 0.00 | 0.00 | 90 | 1012.3 |
| 20260831091508 | 24 | 167 | 1.6 | 14.5 | 0.00 | 0.00 | 0.00 | 89 | 1012.3 |
| 20260831091100 | 24 | 159 | 4.8 | 8.0 | 0.00 | 0.00 | 0.00 | 89 | 1012.3 |
| 20260831090549 | 24 | 127 | 3.2 | 11.3 | 0.00 | 0.00 | 0.00 | 89 | 1012.2 |
| 20260831090027 | 24 | 169 | 3.2 | 9.7 | 0.00 | 0.00 | 0.00 | 89 | 1012.3 |
| 20260831085517 | 24 | 168 | 4.8 | 12.9 | 0.00 | 0.00 | 0.00 | 88 | 1012.3 |
| 20260831085005 | 24 | 152 | 3.2 | 12.9 | 0.00 | 0.00 | 0.00 | 88 | 1012.3 |
| 20260831084603 | 24 | 168 | 6.4 | 12.9 | 0.00 | 0.00 | 0.00 | 88 | 1012.4 |
| 20260831084045 | 24 | 178 | 1.6 | 12.9 | 0.00 | 0.00 | 0.00 | 87 | 1012.4 |
| 20260831083536 | 24 | 165 | 4.8 | 12.9 | 0.00 | 0.00 | 0.00 | 86 | 1012.4 |
| 20260831083027 | 24 | 161 | 3.2 | 9.7 | 0.00 | 0.00 | 0.00 | 86 | 1012.4 |
| 20260831082514 | 24 | 148 | 1.6 | 12.9 | 0.00 | 0.00 | 0.00 | 86 | 1012.4 |
| 20260831082005 | 24 | 159 | 3.2 | 12.9 | 0.00 | 0.00 | 0.00 | 85 | 1012.5 |
| 20260831081555 | 25 | 177 | 3.2 | 11.3 | 0.00 | 0.00 | 0.00 | 85 | 1012.5 |
| 20260831081045 | 25 | 173 | 3.2 | 11.3 | 0.00 | 0.00 | 0.00 | 85 | 1012.4 |
| 20260831080534 | 25 | 175 | 3.2 | 11.3 | 0.00 | 0.00 | 0.00 | 84 | 1012.4 |
| 20260831080011 | 25 | 149 | 0.0 | 8.0 | 0.00 | 0.00 | 0.00 | 84 | 1012.4 |
| 20260831075602 | 25 | 135 | 1.6 | 8.0 | 0.00 | 0.00 | 0.00 | 83 | 1012.5 |
| 20260831075051 | 25 | 165 | 0.0 | 4.8 | 0.00 | 0.00 | 0.00 | 83 | 1012.4 |
| 20260831074541 | 25 | 159 | 1.6 | 9.7 | 0.00 | 0.00 | 0.00 | 83 | 1012.5 |
| 20260831074030 | 25 | 165 | 1.6 | 9.7 | 0.00 | 0.00 | 0.00 | 82 | 1012.5 |
| 20260831073520 | 25 | 169 | 0.0 | 8.0 | 0.00 | 0.00 | 0.00 | 82 | 1012.5 |
| 20260831073006 | 25 | 161 | 1.6 | 9.7 | 0.00 | 0.00 | 0.00 | 82 | 1012.5 |
| 20260831072556 | 25 | 146 | 1.6 | 8.0 | 0.00 | 0.00 | 0.00 | 81 | 1012.5 |
| 20260831072048 | 25 | 141 | 1.6 | 8.0 | 0.00 | 0.00 | 0.00 | 81 | 1012.5 |
| 20260831071536 | 25 | 148 | 1.6 | 8.0 | 0.00 | 0.00 | 0.00 | 81 | 1012.6 |
| 20260831071026 | 25 | 119 | 3.2 | 8.0 | 0.00 | 0.00 | 0.00 | 80 | 1012.5 |
| 20260831070514 | 25 | 156 | 0.0 | 8.0 | 0.00 | 0.00 | 0.00 | 80 | 1012.5 |
| 20260831070104 | 25 | 165 | 1.6 | 12.9 | 0.00 | 0.00 | 0.00 | 79 | 1012.6 |
| 20260831065543 | 26 | 176 | 4.8 | 12.9 | 0.00 | 0.00 | 0.00 | 79 | 1012.6 |
| 20260831065031 | 26 | 153 | 1.6 | 11.3 | 0.00 | 0.00 | 0.00 | 78 | 1012.7 |
| 20260831064521 | 26 | 158 | 1.6 | 11.3 | 0.00 | 0.00 | 0.00 | 78 | 1012.7 |
| 20260831064010 | 26 | 169 | 3.2 | 14.5 | 0.00 | 0.00 | 0.00 | 77 | 1012.7 |
| 20260831063601 | 26 | 158 | 4.8 | 14.5 | 0.00 | 0.00 | 0.00 | 77 | 1012.8 |
| 20260831063052 | 26 | 151 | 4.8 | 11.3 | 0.00 | 0.00 | 0.00 | 77 | 1012.9 |
| 20260831062540 | 26 | 128 | 3.2 | 12.9 | 0.00 | 0.00 | 0.00 | 76 | 1012.8 |
| 20260831062030 | 26 | 152 | 4.8 | 12.9 | 0.00 | 0.00 | 0.00 | 76 | 1012.7 |
| 20260831061519 | 26 | 144 | 1.6 | 17.7 | 0.00 | 0.00 | 0.00 | 75 | 1012.6 |
| 20260831061011 | 26 | 170 | 8.0 | 17.7 | 0.00 | 0.00 | 0.00 | 75 | 1012.6 |
| 20260831060600 | 26 | 142 | 4.8 | 14.5 | 0.00 | 0.00 | 0.00 | 74 | 1012.6 |
| 20260831060036 | 26 | 144 | 6.4 | 12.9 | 0.00 | 0.00 | 0.00 | 74 | 1012.5 |
| 20260831055525 | 27 | 182 | 4.8 | 14.5 | 0.00 | 0.00 | 0.00 | 74 | 1012.5 |
| 20260831055014 | 27 | 184 | 1.6 | 11.3 | 0.00 | 0.00 | 0.00 | 74 | 1012.4 |
| 20260831054503 | 27 | 175 | 3.2 | 11.3 | 0.00 | 0.00 | 0.00 | 74 | 1012.4 |
| 20260831054055 | 27 | 175 | 4.8 | 14.5 | 0.00 | 0.00 | 0.00 | 74 | 1012.4 |
| 20260831053545 | 27 | 185 | 8.0 | 14.5 | 0.00 | 0.00 | 0.00 | 74 | 1012.4 |
| 20260831053039 | 27 | 159 | 6.4 | 14.5 | 0.00 | 0.00 | 0.00 | 73 | 1012.3 |
| 20260831052524 | 27 | 125 | 8.0 | 22.5 | 0.00 | 0.00 | 0.00 | 73 | 1012.3 |
| 20260831052012 | 27 | 158 | 6.4 | 22.5 | 0.00 | 0.00 | 0.00 | 72 | 1012.3 |
| 20260831051506 | 27 | 152 | 9.7 | 17.7 | 0.00 | 0.00 | 0.00 | 72 | 1012.2 |
| 20260831051053 | 27 | 140 | 8.0 | 17.7 | 0.00 | 0.00 | 0.00 | 71 | 1012.3 |
| 20260831050545 | 27 | 113 | 3.2 | 14.5 | 0.00 | 0.00 | 0.00 | 71 | 1012.2 |
| 20260831050019 | 27 | 116 | 0.0 | 9.7 | 0.00 | 0.00 | 0.00 | 70 | 1012.2 |
| 20260831045512 | 28 | 156 | 3.2 | 9.7 | 0.00 | 0.00 | 0.00 | 70 | 1012.1 |
| 20260831045102 | 28 | 126 | 4.8 | 12.9 | 0.00 | 0.00 | 0.00 | 69 | 1012.1 |
| 20260831044548 | 28 | 132 | 1.6 | 12.9 | 0.00 | 0.00 | 0.00 | 69 | 1012.0 |
| 20260831044037 | 28 | 169 | 3.2 | 16.1 | 0.00 | 0.00 | 0.00 | 69 | 1012.0 |
| 20260831043526 | 28 | 138 | 8.0 | 19.3 | 0.00 | 0.00 | 0.00 | 68 | 1012.0 |
| 20260831043016 | 28 | 134 | 6.4 | 22.5 | 0.00 | 0.00 | 0.00 | 68 | 1012.0 |
| 20260831042505 | 28 | 115 | 14.5 | 22.5 | 0.00 | 0.00 | 0.00 | 67 | 1011.9 |
| 20260831042057 | 28 | 153 | 8.0 | 24.1 | 0.00 | 0.00 | 0.00 | 67 | 1011.9 |
| 20260831041546 | 28 | 138 | 8.0 | 16.1 | 0.00 | 0.00 | 0.00 | 66 | 1011.9 |
| 20260831041035 | 28 | 159 | 6.4 | 16.1 | 0.00 | 0.00 | 0.00 | 66 | 1012.0 |
| 20260831040525 | 28 | 136 | 6.4 | 16.1 | 0.00 | 0.00 | 0.00 | 66 | 1011.9 |
| 20260831040002 | 28 | 155 | 9.7 | 16.1 | 0.00 | 0.00 | 0.00 | 65 | 1012.0 |
| 20260831035553 | 28 | 159 | 9.7 | 24.1 | 0.00 | 0.00 | 0.00 | 65 | 1012.0 |
| 20260831035041 | 29 | 183 | 11.3 | 24.1 | 0.00 | 0.00 | 0.00 | 65 | 1011.8 |
| 20260831034531 | 29 | 149 | 11.3 | 24.1 | 0.00 | 0.00 | 0.00 | 65 | 1011.8 |
| 20260831034020 | 29 | 156 | 4.8 | 12.9 | 0.00 | 0.00 | 0.00 | 65 | 1011.7 |
| 20260831033511 | 29 | 162 | 3.2 | 12.9 | 0.00 | 0.00 | 0.00 | 64 | 1011.7 |
| 20260831033111 | 29 | 149 | 3.2 | 12.9 | 0.00 | 0.00 | 0.00 | 64 | 1011.6 |
| 20260831032554 | 29 | 131 | 4.8 | 12.9 | 0.00 | 0.00 | 0.00 | 64 | 1011.6 |
| 20260831032041 | 30 | 135 | 3.2 | 12.9 | 0.00 | 0.00 | 0.00 | 64 | 1011.5 |
| 20260831031530 | 30 | 144 | 3.2 | 14.5 | 0.00 | 0.00 | 0.00 | 63 | 1011.5 |
| 20260831031025 | 30 | 153 | 6.4 | 16.1 | 0.00 | 0.00 | 0.00 | 63 | 1011.4 |
| 20260831030511 | 30 | 157 | 3.2 | 12.9 | 0.00 | 0.00 | 0.00 | 63 | 1011.3 |
| 20260831030048 | 30 | 151 | 8.0 | 14.5 | 0.00 | 0.00 | 0.00 | 63 | 1011.2 |
| 20260831025538 | 30 | 182 | 6.4 | 16.1 | 0.00 | 0.00 | 0.00 | 63 | 1011.2 |
| 20260831025027 | 30 | 140 | 4.8 | 12.9 | 0.00 | 0.00 | 0.00 | 63 | 1011.0 |
| 20260831024516 | 30 | 142 | 4.8 | 12.9 | 0.00 | 0.00 | 0.00 | 62 | 1010.9 |